Preview of NWS' New Version of Forecast
This preview is not operational and should not be used for support decisions.

Regional Weather Roundup (RWR)

Issued by National Weather Service (NWS)

                            
000
ASUS43 KBIS 200610
RWRND 

NORTH DAKOTA REGIONAL WEATHER ROUNDUP
NATIONAL WEATHER SERVICE BISMARCK ND
1200 AM CST WED FEB 20 2019

NOTE: "FAIR" INDICATES FEW OR NO CLOUDS BELOW 12,000 FEET WITH NO
SIGNIFICANT WEATHER AND/OR OBSTRUCTIONS TO VISIBILITY.


NDZ001>003-009>011-017-200700-
NORTHWEST NORTH DAKOTA
  
CITY           SKY/WX    TMP DP  RH WIND       PRES   REMARKS
WILLISTON      CLEAR     -6  -9  86 S3        29.87F                  
6HR MIN TEMP: -14; 6HR MAX TEMP:  10;                                

MINOT          CLOUDY     3  -3  76 S13       29.92F WCI -14          
MINOT AFB      CLEAR     -2  -6  80 S12       29.95F WCI -19          
$$
 
NDZ018>021-031>035-040>046-200700-
SOUTHWEST NORTH DAKOTA
  
CITY           SKY/WX    TMP DP  RH WIND       PRES   REMARKS
BISMARCK       LGT SNOW   4   1  88 E6        29.97F FOG     WCI  -7  
6HR MIN TEMP:  -6; 6HR MAX TEMP:   4; 6HR PCP:  0.01;                

DICKINSON      LGT SNOW   2  -2  83 S9        29.80F FOG     WCI -13  
GARRISON         N/A     -3  -7  82 CALM      29.93F                  
6HR MIN TEMP:  -7; 6HR MAX TEMP:   3;                                

HETTINGER ARPT FLURRIES   0  -4  83 CALM      29.82F                  
$$
 
NDZ004>008-012>016-024-026-027-054-200700-
NORTHEAST NORTH DAKOTA
  
CITY           SKY/WX    TMP DP  RH WIND       PRES   REMARKS
GRAND FORKS    PTCLDY    -1  -4  87 S9        30.13F WCI -16          
GRND FRKS AFB  PTCLDY     0  -4  82 S9        30.11F WCI -15          
DEVILS LAKE    FLURRIES   1  -2  87 S10       30.03F WCI -15          
$$
 
NDZ022-023-025-028>030-036>039-047>053-200700-
SOUTHEAST NORTH DAKOTA
  
CITY           SKY/WX    TMP DP  RH WIND       PRES   REMARKS
FARGO          CLOUDY    10   7  87 SE9       30.14F FOG     WCI  -3  
6HR MIN TEMP:   8; 6HR MAX TEMP:  11; 6HR PCP:  0.02;                

JAMESTOWN      CLOUDY     9   6  88 SE12      30.02F WCI  -6          
$$